| time (UTC) | temp F | wind direction | speed MPH | gust MPH | rain 1hr in | rain 24hr in | rain mn in | humidity % | barometer mb |
| 20260506233107 | 62 | 188 | 2.0 | 4.0 | 0.00 | 0.00 | 0.00 | 65 | 1007.1 |
| 20260506233033 | 62 | 188 | 2.0 | 4.0 | 0.00 | 0.00 | 0.00 | 65 | 1007.1 |
| 20260506232532 | 62 | 198 | 1.0 | 7.0 | 0.00 | 0.00 | 0.00 | 65 | 1007.2 |
| 20260506232029 | 62 | 197 | 2.0 | 4.0 | 0.00 | 0.00 | 0.00 | 64 | 1007.2 |
| 20260506231528 | 62 | 181 | 2.0 | 4.0 | 0.00 | 0.00 | 0.00 | 64 | 1006.9 |
| 20260506231049 | 62 | 182 | 0.0 | 2.0 | 0.00 | 0.00 | 0.00 | 64 | 1007.0 |
| 20260506231026 | 62 | 182 | 0.0 | 2.0 | 0.00 | 0.00 | 0.00 | 64 | 1007.0 |
| 20260506230524 | 62 | 180 | 1.0 | 4.0 | 0.00 | 0.00 | 0.00 | 64 | 1007.0 |
| 20260506230345 | 62 | 0.0 | 0.0 | 0.00 | 0.00 | 0.00 | 63 | 1006.9 | |
| 20260506230111 | 62 | 178 | 1.0 | 6.0 | 0.00 | 0.00 | 0.00 | 63 | 1007.0 |
| 20260506230022 | 62 | 178 | 1.0 | 6.0 | 0.00 | 0.00 | 0.00 | 63 | 1007.0 |
| 20260506225520 | 62 | 172 | 0.0 | 2.0 | 0.00 | 0.00 | 0.00 | 63 | 1007.0 |
| 20260506225019 | 62 | 0.0 | 0.0 | 0.00 | 0.00 | 0.00 | 63 | 1006.9 | |
| 20260506224517 | 63 | 0.0 | 0.0 | 0.00 | 0.00 | 0.00 | 63 | 1006.9 | |
| 20260506224035 | 63 | 0.0 | 0.0 | 0.00 | 0.00 | 0.00 | 62 | 1006.9 | |
| 20260506223533 | 63 | 0.0 | 0.0 | 0.00 | 0.00 | 0.00 | 62 | 1006.9 | |
| 20260506223032 | 63 | 0.0 | 0.0 | 0.00 | 0.00 | 0.00 | 62 | 1006.9 | |
| 20260506222530 | 63 | 0.0 | 0.0 | 0.00 | 0.00 | 0.00 | 61 | 1007.0 | |
| 20260506222028 | 64 | 0.0 | 0.0 | 0.00 | 0.00 | 0.00 | 61 | 1007.0 | |
| 20260506221527 | 64 | 0.0 | 0.0 | 0.00 | 0.00 | 0.00 | 61 | 1006.9 | |
| 20260506221025 | 64 | 0.0 | 0.0 | 0.00 | 0.00 | 0.00 | 61 | 1006.9 | |
| 20260506220523 | 64 | 0.0 | 0.0 | 0.00 | 0.00 | 0.00 | 60 | 1006.9 | |
| 20260506220020 | 64 | 0.0 | 0.0 | 0.00 | 0.00 | 0.00 | 60 | 1006.9 | |
| 20260506215519 | 64 | 0.0 | 0.0 | 0.00 | 0.00 | 0.00 | 60 | 1006.9 | |
| 20260506215017 | 64 | 0.0 | 0.0 | 0.00 | 0.00 | 0.00 | 60 | 1006.9 | |
| 20260506214536 | 65 | 184 | 0.0 | 2.0 | 0.00 | 0.00 | 0.00 | 60 | 1007.0 |
| 20260506214033 | 65 | 0.0 | 0.0 | 0.00 | 0.00 | 0.00 | 59 | 1007.0 | |
| 20260506213532 | 65 | 184 | 0.0 | 1.0 | 0.00 | 0.00 | 0.00 | 59 | 1007.0 |
| 20260506213030 | 65 | 161 | 0.0 | 1.0 | 0.00 | 0.00 | 0.00 | 59 | 1007.1 |
| 20260506212528 | 65 | 129 | 0.0 | 2.0 | 0.00 | 0.00 | 0.00 | 60 | 1007.1 |
| 20260506212026 | 65 | 154 | 1.0 | 6.0 | 0.00 | 0.00 | 0.00 | 60 | 1007.2 |
| 20260506211525 | 65 | 161 | 2.0 | 6.0 | 0.00 | 0.00 | 0.00 | 60 | 1007.3 |
| 20260506211023 | 65 | 170 | 3.0 | 8.0 | 0.00 | 0.00 | 0.00 | 60 | 1007.3 |
| 20260506210521 | 65 | 169 | 2.0 | 4.0 | 0.00 | 0.00 | 0.00 | 60 | 1007.3 |
| 20260506210019 | 65 | 169 | 2.0 | 6.0 | 0.00 | 0.00 | 0.00 | 61 | 1007.3 |
| 20260506205517 | 65 | 165 | 3.0 | 7.0 | 0.00 | 0.00 | 0.00 | 61 | 1007.4 |
| 20260506205036 | 65 | 167 | 3.0 | 7.0 | 0.00 | 0.00 | 0.00 | 61 | 1007.4 |
| 20260506204534 | 65 | 185 | 4.0 | 8.0 | 0.00 | 0.00 | 0.00 | 61 | 1007.5 |
| 20260506204032 | 66 | 196 | 5.0 | 13.0 | 0.00 | 0.00 | 0.00 | 62 | 1007.7 |
| 20260506203530 | 66 | 181 | 7.0 | 15.0 | 0.00 | 0.00 | 0.00 | 62 | 1007.6 |
| 20260506203028 | 66 | 190 | 8.0 | 17.0 | 0.00 | 0.00 | 0.00 | 63 | 1007.7 |
| 20260506202526 | 66 | 178 | 7.0 | 19.0 | 0.00 | 0.00 | 0.00 | 63 | 1007.6 |
| 20260506202024 | 67 | 183 | 7.0 | 21.0 | 0.00 | 0.00 | 0.00 | 62 | 1007.7 |
| 20260506201522 | 67 | 182 | 7.0 | 13.0 | 0.00 | 0.00 | 0.00 | 61 | 1007.7 |
| 20260506201020 | 67 | 173 | 5.0 | 19.0 | 0.00 | 0.00 | 0.00 | 59 | 1007.5 |
| 20260506200518 | 67 | 203 | 4.0 | 13.0 | 0.00 | 0.00 | 0.00 | 59 | 1007.5 |
| 20260506200016 | 67 | 208 | 4.0 | 8.0 | 0.00 | 0.00 | 0.00 | 59 | 1007.5 |
| 20260506195535 | 67 | 226 | 4.0 | 9.0 | 0.00 | 0.00 | 0.00 | 59 | 1007.3 |
| 20260506195033 | 67 | 237 | 5.0 | 15.0 | 0.00 | 0.00 | 0.00 | 58 | 1007.4 |
| 20260506194531 | 67 | 226 | 5.0 | 10.0 | 0.00 | 0.00 | 0.00 | 57 | 1007.4 |
| 20260506194029 | 67 | 218 | 6.0 | 14.0 | 0.00 | 0.00 | 0.00 | 56 | 1007.5 |
| 20260506193527 | 67 | 201 | 4.0 | 11.0 | 0.00 | 0.00 | 0.00 | 56 | 1007.5 |
| 20260506193048 | 68 | 221 | 2.0 | 13.0 | 0.00 | 0.00 | 0.00 | 54 | 1000.7 |
| 20260506193025 | 68 | 221 | 2.0 | 13.0 | 0.00 | 0.00 | 0.00 | 54 | 1007.2 |
| 20260506192523 | 68 | 151 | 0.0 | 1.0 | 0.00 | 0.00 | 0.00 | 54 | 1007.0 |
| 20260506192022 | 68 | 168 | 0.0 | 1.0 | 0.00 | 0.00 | 0.00 | 54 | 1007.1 |
| 20260506191520 | 68 | 0.0 | 0.0 | 0.00 | 0.00 | 0.00 | 54 | 1006.9 | |
| 20260506191018 | 68 | 0.0 | 0.0 | 0.00 | 0.00 | 0.00 | 53 | 1006.9 | |
| 20260506190516 | 69 | 0.0 | 0.0 | 0.00 | 0.00 | 0.00 | 53 | 1006.9 | |
| 20260506190035 | 69 | 0.0 | 0.0 | 0.00 | 0.00 | 0.00 | 53 | 1006.8 | |
| 20260506185533 | 69 | 0.0 | 0.0 | 0.00 | 0.00 | 0.00 | 53 | 1006.8 | |
| 20260506185031 | 69 | 0.0 | 0.0 | 0.00 | 0.00 | 0.00 | 52 | 1006.9 | |
| 20260506184529 | 70 | 0.0 | 0.0 | 0.00 | 0.00 | 0.00 | 51 | 1006.9 | |
| 20260506184028 | 70 | 0.0 | 0.0 | 0.00 | 0.00 | 0.00 | 51 | 1006.8 | |
| 20260506183525 | 70 | 0.0 | 0.0 | 0.00 | 0.00 | 0.00 | 50 | 1006.7 | |
| 20260506183023 | 71 | 0.0 | 0.0 | 0.00 | 0.00 | 0.00 | 49 | 1006.6 | |
| 20260506182520 | 71 | 0.0 | 0.0 | 0.00 | 0.00 | 0.00 | 49 | 1006.6 | |
| 20260506182018 | 71 | 0.0 | 0.0 | 0.00 | 0.00 | 0.00 | 48 | 1006.6 | |
| 20260506181516 | 72 | 0.0 | 0.0 | 0.00 | 0.00 | 0.00 | 47 | 1006.5 | |
| 20260506181034 | 72 | 0.0 | 0.0 | 0.00 | 0.00 | 0.00 | 47 | 1006.5 | |
| 20260506180532 | 72 | 0.0 | 0.0 | 0.00 | 0.00 | 0.00 | 46 | 1006.5 | |
| 20260506180030 | 73 | 0.0 | 0.0 | 0.00 | 0.00 | 0.00 | 46 | 1006.4 | |
| 20260506175528 | 73 | 0.0 | 0.0 | 0.00 | 0.00 | 0.00 | 46 | 1006.3 | |
| 20260506175026 | 73 | 0.0 | 0.0 | 0.00 | 0.00 | 0.00 | 45 | 1006.4 | |
| 20260506174524 | 74 | 0.0 | 0.0 | 0.00 | 0.00 | 0.00 | 44 | 1006.4 | |
| 20260506174022 | 74 | 0.0 | 0.0 | 0.00 | 0.00 | 0.00 | 44 | 1006.3 | |
| 20260506173520 | 74 | 0.0 | 0.0 | 0.00 | 0.00 | 0.00 | 43 | 1006.4 | |
| 20260506173018 | 74 | 0.0 | 0.0 | 0.00 | 0.00 | 0.00 | 43 | 1006.3 | |
| 20260506172517 | 75 | 285 | 1.0 | 2.0 | 0.00 | 0.00 | 0.00 | 42 | 1006.3 |
| 20260506172035 | 75 | 288 | 1.0 | 3.0 | 0.00 | 0.00 | 0.00 | 42 | 1006.3 |
| 20260506171534 | 75 | 284 | 1.0 | 3.0 | 0.00 | 0.00 | 0.00 | 41 | 1006.2 |
| 20260506171031 | 75 | 274 | 1.0 | 2.0 | 0.00 | 0.00 | 0.00 | 41 | 1006.2 |
| 20260506170530 | 76 | 268 | 2.0 | 6.0 | 0.00 | 0.00 | 0.00 | 41 | 1006.2 |
| 20260506170029 | 76 | 283 | 1.0 | 3.0 | 0.00 | 0.00 | 0.00 | 40 | 1006.2 |
| 20260506165526 | 76 | 276 | 2.0 | 6.0 | 0.00 | 0.00 | 0.00 | 40 | 1006.2 |
| 20260506165023 | 76 | 285 | 2.0 | 4.0 | 0.00 | 0.00 | 0.00 | 40 | 1006.2 |
| 20260506164521 | 76 | 266 | 2.0 | 4.0 | 0.00 | 0.00 | 0.00 | 40 | 1006.2 |
| 20260506164048 | 76 | 270 | 3.0 | 6.0 | 0.00 | 0.00 | 0.00 | 39 | 1006.2 |
| 20260506164019 | 76 | 270 | 3.0 | 6.0 | 0.00 | 0.00 | 0.00 | 39 | 1006.2 |
| 20260506163517 | 76 | 276 | 3.0 | 7.0 | 0.00 | 0.00 | 0.00 | 39 | 1006.1 |
| 20260506163035 | 76 | 274 | 3.0 | 8.0 | 0.00 | 0.00 | 0.00 | 40 | 1006.1 |
| 20260506162533 | 76 | 260 | 2.0 | 8.0 | 0.00 | 0.00 | 0.00 | 40 | 1006.2 |
| 20260506162032 | 76 | 278 | 3.0 | 7.0 | 0.00 | 0.00 | 0.00 | 39 | 1006.1 |
| 20260506161530 | 77 | 293 | 3.0 | 9.0 | 0.00 | 0.00 | 0.00 | 39 | 1006.1 |
| 20260506161028 | 77 | 266 | 3.0 | 8.0 | 0.00 | 0.00 | 0.00 | 39 | 1006.1 |
| 20260506160526 | 77 | 254 | 4.0 | 11.0 | 0.00 | 0.00 | 0.00 | 38 | 1006.2 |
| 20260506160024 | 78 | 255 | 5.0 | 11.0 | 0.00 | 0.00 | 0.00 | 38 | 1006.1 |
| 20260506155522 | 78 | 263 | 3.0 | 8.0 | 0.00 | 0.00 | 0.00 | 39 | 1006.2 |
| 20260506155019 | 78 | 250 | 5.0 | 11.0 | 0.00 | 0.00 | 0.00 | 38 | 1006.2 |
| 20260506154517 | 77 | 246 | 4.0 | 9.0 | 0.00 | 0.00 | 0.00 | 39 | 1006.1 |
| 20260506154035 | 77 | 271 | 5.0 | 14.0 | 0.00 | 0.00 | 0.00 | 39 | 1006.2 |
| 20260506153533 | 77 | 241 | 5.0 | 9.0 | 0.00 | 0.00 | 0.00 | 40 | 1006.2 |
| 20260506153030 | 77 | 207 | 4.0 | 13.0 | 0.00 | 0.00 | 0.00 | 39 | 1006.3 |
| 20260506152528 | 77 | 234 | 4.0 | 10.0 | 0.00 | 0.00 | 0.00 | 39 | 1006.2 |
| 20260506152026 | 77 | 227 | 4.0 | 9.0 | 0.00 | 0.00 | 0.00 | 39 | 1006.2 |
| 20260506151525 | 77 | 280 | 4.0 | 9.0 | 0.00 | 0.00 | 0.00 | 40 | 1006.2 |
| 20260506151022 | 77 | 270 | 4.0 | 11.0 | 0.00 | 0.00 | 0.00 | 40 | 1006.4 |
| 20260506150520 | 77 | 261 | 5.0 | 11.0 | 0.00 | 0.00 | 0.00 | 39 | 1006.3 |
| 20260506150018 | 77 | 251 | 4.0 | 9.0 | 0.00 | 0.00 | 0.00 | 39 | 1006.5 |
| 20260506145517 | 77 | 256 | 6.0 | 13.0 | 0.00 | 0.00 | 0.00 | 40 | 1006.4 |
| 20260506145035 | 77 | 259 | 3.0 | 9.0 | 0.00 | 0.00 | 0.00 | 40 | 1006.5 |
| 20260506144533 | 77 | 238 | 3.0 | 7.0 | 0.00 | 0.00 | 0.00 | 40 | 1006.5 |
| 20260506144031 | 77 | 240 | 4.0 | 9.0 | 0.00 | 0.00 | 0.00 | 40 | 1006.5 |
| 20260506143529 | 78 | 234 | 4.0 | 11.0 | 0.00 | 0.00 | 0.00 | 40 | 1006.5 |
| 20260506143027 | 78 | 249 | 5.0 | 14.0 | 0.00 | 0.00 | 0.00 | 40 | 1006.5 |
| 20260506142525 | 78 | 255 | 6.0 | 14.0 | 0.00 | 0.00 | 0.00 | 39 | 1006.5 |
| 20260506142024 | 78 | 213 | 5.0 | 11.0 | 0.00 | 0.00 | 0.00 | 40 | 1006.6 |
| 20260506141523 | 78 | 235 | 7.0 | 14.0 | 0.00 | 0.00 | 0.00 | 39 | 1006.5 |
| 20260506141020 | 78 | 254 | 5.0 | 10.0 | 0.00 | 0.00 | 0.00 | 40 | 1006.5 |
| 20260506140517 | 78 | 225 | 5.0 | 15.0 | 0.00 | 0.00 | 0.00 | 39 | 1006.6 |
| 20260506140049 | 78 | 258 | 6.0 | 14.0 | 0.00 | 0.00 | 0.00 | 39 | 1006.6 |
| 20260506140016 | 78 | 258 | 6.0 | 14.0 | 0.00 | 0.00 | 0.00 | 39 | 1006.6 |
| 20260506135535 | 78 | 276 | 6.0 | 11.0 | 0.00 | 0.00 | 0.00 | 38 | 1006.6 |
| 20260506135032 | 78 | 268 | 7.0 | 17.0 | 0.00 | 0.00 | 0.00 | 39 | 1006.6 |
| 20260506134531 | 78 | 237 | 4.0 | 11.0 | 0.00 | 0.00 | 0.00 | 40 | 1006.5 |
| 20260506134029 | 79 | 246 | 6.0 | 16.0 | 0.00 | 0.00 | 0.00 | 39 | 1006.6 |
| 20260506133526 | 78 | 242 | 7.0 | 18.0 | 0.00 | 0.00 | 0.00 | 40 | 1006.5 |
| 20260506133025 | 78 | 250 | 5.0 | 10.0 | 0.00 | 0.00 | 0.00 | 40 | 1006.4 |
| 20260506132523 | 78 | 271 | 5.0 | 9.0 | 0.00 | 0.00 | 0.00 | 39 | 1006.4 |
| 20260506132021 | 78 | 286 | 5.0 | 11.0 | 0.00 | 0.00 | 0.00 | 40 | 1006.5 |
| 20260506131520 | 78 | 265 | 5.0 | 14.0 | 0.00 | 0.00 | 0.00 | 40 | 1006.5 |
| 20260506131017 | 78 | 252 | 5.0 | 10.0 | 0.00 | 0.00 | 0.00 | 40 | 1006.5 |
| 20260506130516 | 79 | 279 | 7.0 | 17.0 | 0.00 | 0.00 | 0.00 | 39 | 1006.6 |
| 20260506130034 | 79 | 259 | 5.0 | 21.0 | 0.00 | 0.00 | 0.00 | 41 | 1006.4 |
| 20260506125532 | 78 | 237 | 5.0 | 11.0 | 0.00 | 0.00 | 0.00 | 40 | 1006.5 |
| 20260506125030 | 78 | 265 | 6.0 | 17.0 | 0.00 | 0.00 | 0.00 | 41 | 1006.3 |
| 20260506124528 | 78 | 270 | 5.0 | 11.0 | 0.00 | 0.00 | 0.00 | 41 | 1006.5 |
| 20260506124026 | 78 | 264 | 5.0 | 13.0 | 0.00 | 0.00 | 0.00 | 42 | 1006.5 |
| 20260506123525 | 78 | 280 | 5.0 | 17.0 | 0.00 | 0.00 | 0.00 | 41 | 1006.5 |
| 20260506123023 | 78 | 249 | 6.0 | 15.0 | 0.00 | 0.00 | 0.00 | 42 | 1006.6 |
| 20260506122521 | 78 | 245 | 4.0 | 11.0 | 0.00 | 0.00 | 0.00 | 42 | 1006.6 |
| 20260506122019 | 78 | 278 | 4.0 | 10.0 | 0.00 | 0.00 | 0.00 | 42 | 1006.7 |
| 20260506121517 | 77 | 237 | 6.0 | 14.0 | 0.00 | 0.00 | 0.00 | 42 | 1006.7 |
| 20260506121048 | 77 | 256 | 7.0 | 14.0 | 0.00 | 0.00 | 0.00 | 43 | 1006.6 |
| 20260506121016 | 77 | 256 | 7.0 | 14.0 | 0.00 | 0.00 | 0.00 | 43 | 1006.6 |
| 20260506120534 | 77 | 275 | 8.0 | 19.0 | 0.00 | 0.00 | 0.00 | 43 | 1006.6 |
| 20260506120032 | 77 | 266 | 8.0 | 15.0 | 0.00 | 0.00 | 0.00 | 43 | 1006.5 |
| 20260506115530 | 77 | 249 | 7.0 | 16.0 | 0.00 | 0.00 | 0.00 | 43 | 1006.6 |
| 20260506115029 | 77 | 261 | 4.0 | 11.0 | 0.00 | 0.00 | 0.00 | 44 | 1006.6 |
| 20260506114526 | 77 | 254 | 5.0 | 11.0 | 0.00 | 0.00 | 0.00 | 43 | 1006.6 |
| 20260506114025 | 77 | 240 | 7.0 | 15.0 | 0.00 | 0.00 | 0.00 | 43 | 1006.5 |
| 20260506113523 | 77 | 208 | 6.0 | 14.0 | 0.00 | 0.00 | 0.00 | 43 | 1006.5 |
| 20260506113021 | 77 | 266 | 6.0 | 17.0 | 0.00 | 0.00 | 0.00 | 42 | 1006.5 |
| 20260506112519 | 77 | 273 | 6.0 | 16.0 | 0.00 | 0.00 | 0.00 | 42 | 1006.5 |
| 20260506112017 | 77 | 248 | 5.0 | 13.0 | 0.00 | 0.00 | 0.00 | 42 | 1006.5 |
| 20260506111535 | 77 | 238 | 6.0 | 18.0 | 0.00 | 0.00 | 0.00 | 43 | 1006.5 |
| 20260506111033 | 77 | 192 | 7.0 | 15.0 | 0.00 | 0.00 | 0.00 | 42 | 1006.4 |
| 20260506110532 | 77 | 253 | 7.0 | 19.0 | 0.00 | 0.00 | 0.00 | 42 | 1006.4 |
| 20260506110030 | 77 | 255 | 8.0 | 17.0 | 0.00 | 0.00 | 0.00 | 41 | 1006.4 |
| 20260506105528 | 77 | 225 | 6.0 | 18.0 | 0.00 | 0.00 | 0.00 | 43 | 1006.3 |
| 20260506105026 | 77 | 260 | 6.0 | 17.0 | 0.00 | 0.00 | 0.00 | 43 | 1006.3 |
| 20260506104524 | 77 | 255 | 5.0 | 17.0 | 0.00 | 0.00 | 0.00 | 43 | 1006.3 |
| 20260506104022 | 77 | 222 | 4.0 | 14.0 | 0.00 | 0.00 | 0.00 | 43 | 1006.3 |
| 20260506103521 | 76 | 253 | 6.0 | 11.0 | 0.00 | 0.00 | 0.00 | 43 | 1006.4 |
| 20260506103019 | 76 | 263 | 4.0 | 9.0 | 0.00 | 0.00 | 0.00 | 42 | 1006.4 |
| 20260506102517 | 76 | 248 | 7.0 | 15.0 | 0.00 | 0.00 | 0.00 | 43 | 1006.3 |
| 20260506102036 | 76 | 279 | 6.0 | 14.0 | 0.00 | 0.00 | 0.00 | 42 | 1006.4 |
| 20260506101534 | 76 | 237 | 6.0 | 15.0 | 0.00 | 0.00 | 0.00 | 41 | 1006.3 |
| 20260506101032 | 76 | 210 | 5.0 | 11.0 | 0.00 | 0.00 | 0.00 | 41 | 1006.4 |
| 20260506100530 | 76 | 212 | 8.0 | 16.0 | 0.00 | 0.00 | 0.00 | 41 | 1006.4 |
| 20260506100028 | 77 | 243 | 7.0 | 16.0 | 0.00 | 0.00 | 0.00 | 41 | 1006.3 |
| 20260506095527 | 76 | 236 | 5.0 | 13.0 | 0.00 | 0.00 | 0.00 | 41 | 1006.4 |
| 20260506095024 | 76 | 252 | 7.0 | 16.0 | 0.00 | 0.00 | 0.00 | 40 | 1006.4 |
| 20260506094523 | 76 | 224 | 7.0 | 17.0 | 0.00 | 0.00 | 0.00 | 40 | 1006.3 |
| 20260506094021 | 76 | 191 | 6.0 | 16.0 | 0.00 | 0.00 | 0.00 | 40 | 1006.3 |
| 20260506093519 | 76 | 234 | 7.0 | 16.0 | 0.00 | 0.00 | 0.00 | 40 | 1006.3 |
| 20260506093017 | 76 | 191 | 7.0 | 15.0 | 0.00 | 0.00 | 0.00 | 40 | 1006.2 |
| 20260506092515 | 76 | 222 | 6.0 | 17.0 | 0.00 | 0.00 | 0.00 | 40 | 1006.4 |
| 20260506092034 | 76 | 189 | 7.0 | 15.0 | 0.00 | 0.00 | 0.00 | 40 | 1006.4 |
| 20260506091532 | 75 | 234 | 6.0 | 14.0 | 0.00 | 0.00 | 0.00 | 40 | 1006.2 |
| 20260506091030 | 76 | 214 | 6.0 | 17.0 | 0.00 | 0.00 | 0.00 | 40 | 1006.3 |
| 20260506090528 | 75 | 201 | 6.0 | 15.0 | 0.00 | 0.00 | 0.00 | 40 | 1006.2 |
| 20260506090027 | 75 | 200 | 7.0 | 15.0 | 0.00 | 0.00 | 0.00 | 41 | 1006.2 |
| 20260506085525 | 75 | 220 | 6.0 | 17.0 | 0.00 | 0.00 | 0.00 | 41 | 1006.3 |
| 20260506085023 | 74 | 253 | 7.0 | 15.0 | 0.00 | 0.00 | 0.00 | 42 | 1006.3 |
| 20260506084521 | 74 | 247 | 4.0 | 10.0 | 0.00 | 0.00 | 0.00 | 42 | 1006.2 |
| 20260506084019 | 74 | 233 | 6.0 | 14.0 | 0.00 | 0.00 | 0.00 | 42 | 1006.2 |
| 20260506083517 | 73 | 187 | 4.0 | 10.0 | 0.00 | 0.00 | 0.00 | 42 | 1006.1 |
| 20260506083035 | 73 | 181 | 5.0 | 11.0 | 0.00 | 0.00 | 0.00 | 43 | 1006.2 |
| 20260506082533 | 72 | 203 | 3.0 | 9.0 | 0.00 | 0.00 | 0.00 | 43 | 1006.1 |
| 20260506082031 | 72 | 220 | 4.0 | 11.0 | 0.00 | 0.00 | 0.00 | 43 | 1006.2 |
| 20260506081530 | 72 | 201 | 3.0 | 7.0 | 0.00 | 0.00 | 0.00 | 44 | 1006.2 |
| 20260506081028 | 72 | 236 | 5.0 | 11.0 | 0.00 | 0.00 | 0.00 | 44 | 1006.2 |
| 20260506080526 | 71 | 234 | 3.0 | 10.0 | 0.00 | 0.00 | 0.00 | 44 | 1006.1 |
| 20260506073033 | 69 | 276 | 4.0 | 9.0 | 0.00 | 0.00 | 0.00 | 46 | 1006.3 |
| 20260506072543 | 68 | 281 | 3.0 | 8.0 | 0.00 | 0.00 | 0.00 | 47 | 1006.3 |
| 20260506072029 | 68 | 230 | 2.0 | 7.0 | 0.00 | 0.00 | 0.00 | 50 | 1006.4 |
| 20260506071527 | 67 | 272 | 3.0 | 6.0 | 0.00 | 0.00 | 0.00 | 50 | 1006.3 |
| 20260506071025 | 67 | 237 | 3.0 | 8.0 | 0.00 | 0.00 | 0.00 | 51 | 1006.4 |
| 20260506070524 | 66 | 278 | 2.0 | 7.0 | 0.00 | 0.00 | 0.00 | 51 | 1006.3 |
| 20260506062027 | 62 | 215 | 2.0 | 4.0 | 0.00 | 0.00 | 0.00 | 55 | 1006.4 |
| 20260506061526 | 62 | 184 | 3.0 | 7.0 | 0.00 | 0.00 | 0.00 | 56 | 1006.5 |
| 20260506061025 | 61 | 183 | 3.0 | 8.0 | 0.00 | 0.00 | 0.00 | 56 | 1006.5 |
| 20260506060522 | 61 | 177 | 5.0 | 10.0 | 0.00 | 0.00 | 0.00 | 56 | 1006.6 |
| 20260506051022 | 58 | 160 | 2.0 | 4.0 | 0.00 | 0.00 | 0.00 | 59 | 1006.5 |
| 20260506050521 | 58 | 169 | 2.0 | 7.0 | 0.00 | 0.00 | 0.00 | 59 | 1006.6 |
| 20260506045035 | 57 | 166 | 1.0 | 4.0 | 0.00 | 0.00 | 0.00 | 60 | 1006.5 |
| 20260506044533 | 57 | 111 | 1.0 | 3.0 | 0.00 | 0.00 | 0.00 | 60 | 1006.5 |
| 20260506044033 | 57 | 140 | 1.0 | 4.0 | 0.00 | 0.00 | 0.00 | 61 | 1006.7 |
| 20260506043530 | 56 | 120 | 2.0 | 3.0 | 0.00 | 0.00 | 0.00 | 61 | 1006.6 |
| 20260506043028 | 56 | 102 | 2.0 | 3.0 | 0.00 | 0.00 | 0.00 | 62 | 1006.7 |
| 20260506042526 | 55 | 129 | 1.0 | 3.0 | 0.00 | 0.00 | 0.00 | 62 | 1006.8 |
| 20260506042024 | 55 | 152 | 1.0 | 3.0 | 0.00 | 0.00 | 0.00 | 61 | 1006.8 |
| 20260506041522 | 55 | 0.0 | 0.0 | 0.00 | 0.00 | 0.00 | 60 | 1006.9 | |
| 20260506041020 | 55 | 0.0 | 0.0 | 0.00 | 0.00 | 0.00 | 60 | 1006.7 | |
| 20260506040518 | 55 | 0.0 | 0.0 | 0.00 | 0.00 | 0.00 | 60 | 1006.7 | |
| 20260506040048 | 55 | 105 | 1.0 | 2.0 | 0.00 | 0.00 | 0.00 | 60 | 1006.7 |
| 20260506040017 | 55 | 105 | 1.0 | 2.0 | 0.00 | 0.00 | 0.00 | 60 | 1006.7 |
| 20260506035535 | 55 | 109 | 1.0 | 2.0 | 0.00 | 0.00 | 0.00 | 60 | 1006.8 |
| 20260506035034 | 55 | 134 | 0.0 | 2.0 | 0.00 | 0.00 | 0.00 | 61 | 1006.7 |
| 20260506034531 | 55 | 104 | 1.0 | 2.0 | 0.00 | 0.00 | 0.00 | 60 | 1006.6 |
| 20260506034030 | 55 | 104 | 1.0 | 2.0 | 0.00 | 0.00 | 0.00 | 59 | 1006.5 |
| 20260506033528 | 55 | 103 | 2.0 | 2.0 | 0.00 | 0.00 | 0.00 | 59 | 1006.5 |
| 20260506033025 | 55 | 103 | 2.0 | 2.0 | 0.00 | 0.00 | 0.00 | 59 | 1006.6 |
| 20260506032524 | 55 | 102 | 1.0 | 2.0 | 0.00 | 0.00 | 0.00 | 59 | 1006.6 |
| 20260506032022 | 55 | 101 | 1.0 | 2.0 | 0.00 | 0.00 | 0.00 | 59 | 1006.6 |
| 20260506031520 | 55 | 105 | 2.0 | 3.0 | 0.00 | 0.00 | 0.00 | 59 | 1006.5 |
| 20260506031018 | 55 | 103 | 2.0 | 3.0 | 0.00 | 0.00 | 0.00 | 59 | 1006.6 |
| 20260506030516 | 55 | 101 | 2.0 | 3.0 | 0.00 | 0.00 | 0.00 | 59 | 1006.6 |
| 20260506030035 | 55 | 108 | 1.0 | 2.0 | 0.00 | 0.00 | 0.00 | 59 | 1006.7 |
| 20260506025533 | 55 | 110 | 1.0 | 2.0 | 0.00 | 0.00 | 0.00 | 59 | 1006.7 |
| 20260506025106 | 55 | 109 | 2.0 | 3.0 | 0.00 | 0.00 | 0.00 | 59 | 1006.6 |
| 20260506025032 | 55 | 109 | 2.0 | 3.0 | 0.00 | 0.00 | 0.00 | 59 | 1006.6 |
| 20260506024530 | 56 | 100 | 1.0 | 3.0 | 0.00 | 0.00 | 0.00 | 57 | 1006.8 |
| 20260506024028 | 56 | 0.0 | 0.0 | 0.00 | 0.00 | 0.00 | 57 | 1006.8 | |
| 20260506023525 | 56 | 99 | 0.0 | 1.0 | 0.00 | 0.00 | 0.00 | 57 | 1006.7 |
| 20260506023024 | 56 | 120 | 1.0 | 2.0 | 0.00 | 0.00 | 0.00 | 57 | 1006.7 |
| 20260506022522 | 56 | 107 | 1.0 | 3.0 | 0.00 | 0.00 | 0.00 | 57 | 1006.6 |
| 20260506022020 | 56 | 102 | 2.0 | 3.0 | 0.00 | 0.00 | 0.00 | 57 | 1006.6 |
| 20260506021518 | 56 | 109 | 2.0 | 4.0 | 0.00 | 0.00 | 0.00 | 57 | 1006.7 |
| 20260506021016 | 56 | 101 | 2.0 | 4.0 | 0.00 | 0.00 | 0.00 | 56 | 1006.8 |
| 20260506020535 | 56 | 95 | 0.0 | 3.0 | 0.00 | 0.00 | 0.00 | 55 | 1006.9 |
| 20260506020033 | 56 | 0.0 | 0.0 | 0.00 | 0.00 | 0.00 | 55 | 1006.8 | |
| 20260506015531 | 56 | 0.0 | 0.0 | 0.00 | 0.00 | 0.00 | 55 | 1006.8 | |
| 20260506015030 | 56 | 0.0 | 0.0 | 0.00 | 0.00 | 0.00 | 56 | 1006.9 | |
| 20260506014527 | 56 | 0.0 | 0.0 | 0.00 | 0.00 | 0.00 | 56 | 1007.0 | |
| 20260506014026 | 56 | 0.0 | 0.0 | 0.00 | 0.00 | 0.00 | 56 | 1007.0 | |
| 20260506013524 | 56 | 0.0 | 0.0 | 0.00 | 0.00 | 0.00 | 55 | 1007.0 | |
| 20260506013034 | 56 | 0.0 | 0.0 | 0.00 | 0.00 | 0.00 | 55 | 1007.0 | |
| 20260506012521 | 56 | 0.0 | 0.0 | 0.00 | 0.00 | 0.00 | 55 | 1007.1 | |
| 20260506012019 | 56 | 0.0 | 0.0 | 0.00 | 0.00 | 0.00 | 54 | 1007.0 | |
| 20260506011517 | 56 | 0.0 | 0.0 | 0.00 | 0.00 | 0.00 | 54 | 1007.0 | |
| 20260506011035 | 56 | 0.0 | 0.0 | 0.00 | 0.00 | 0.00 | 54 | 1007.0 | |
| 20260506010533 | 56 | 0.0 | 0.0 | 0.00 | 0.00 | 0.00 | 53 | 1007.0 | |
| 20260506010032 | 56 | 0.0 | 0.0 | 0.00 | 0.00 | 0.00 | 53 | 1007.0 | |
| 20260506005530 | 56 | 0.0 | 0.0 | 0.00 | 0.00 | 0.00 | 53 | 1006.9 | |
| 20260506005028 | 57 | 0.0 | 0.0 | 0.00 | 0.00 | 0.00 | 53 | 1007.0 | |
| 20260506004526 | 57 | 0.0 | 0.0 | 0.00 | 0.00 | 0.00 | 52 | 1006.9 | |
| 20260506004024 | 57 | 0.0 | 0.0 | 0.00 | 0.00 | 0.00 | 52 | 1007.0 | |
| 20260506003522 | 57 | 183 | 0.0 | 1.0 | 0.00 | 0.00 | 0.00 | 52 | 1007.0 |
| 20260506003020 | 57 | 0.0 | 0.0 | 0.00 | 0.00 | 0.00 | 52 | 1007.0 | |
| 20260506002519 | 57 | 217 | 0.0 | 1.0 | 0.00 | 0.00 | 0.00 | 52 | 1007.0 |
| 20260506002049 | 57 | 192 | 2.0 | 4.0 | 0.00 | 0.00 | 0.00 | 52 | 1007.0 |
| 20260506002017 | 57 | 192 | 2.0 | 4.0 | 0.00 | 0.00 | 0.00 | 52 | 1007.0 |
| 20260506001535 | 57 | 188 | 2.0 | 4.0 | 0.00 | 0.00 | 0.00 | 51 | 1007.1 |
| 20260506001033 | 57 | 174 | 1.0 | 4.0 | 0.00 | 0.00 | 0.00 | 51 | 1007.1 |
| 20260506000532 | 58 | 0.0 | 0.0 | 0.00 | 0.00 | 0.00 | 51 | 1007.0 | |
| 20260506000030 | 58 | 206 | 0.0 | 1.0 | 0.00 | 0.00 | 0.00 | 51 | 1007.0 |
| 20260505235528 | 58 | 193 | 1.0 | 4.0 | 0.00 | 0.00 | 0.00 | 51 | 1007.1 |
| 20260505235027 | 58 | 191 | 1.0 | 4.0 | 0.00 | 0.00 | 0.00 | 50 | 1007.2 |
| 20260505234525 | 58 | 189 | 1.0 | 4.0 | 0.00 | 0.00 | 0.00 | 50 | 1007.2 |
| 20260505234023 | 58 | 192 | 2.0 | 4.0 | 0.00 | 0.00 | 0.00 | 50 | 1007.2 |
| 20260505233521 | 58 | 187 | 3.0 | 7.0 | 0.00 | 0.00 | 0.00 | 50 | 1007.3 |